Hourly Data Report for November 12, 2019

All times are specified in Local Standard Time (LST). Add 1 hour to adjust for Daylight Saving Time where and when it is observed.

WOODSTOCK NEWBRIDGE
NEW BRUNSWICK
Current Station Operator: ECCC - MSC

46°09'08.000" N
67°32'34.000" W
154.00 m
8105603
71606
EWD

Download Data

Hourly Data (November 2019)
Hourly Data Report for November 12, 2019
TIME Temp Definition
°C
Dew Point Definition
°C
Rel Hum Definition
%
Wind Dir Definition
10's deg

Wind Spd Definition
km/h
Visibility Definition
km
Stn Press Definition
kPa
Hmdx Definition


Wind Chill Definition


Weather Definition


00:00 -5.9 -7.1 91 36 3   100.44   -7 LegendNANA
01:00 -5.9 -7.1 92 2 3   100.29   -7 LegendNANA
02:00 -5.9 -7.0 92 1 7   100.11   -9 LegendNANA
03:00 -5.8 -6.9 92 1 8   99.95   -10 LegendNANA
04:00 -5.6 -6.8 91 1 6   99.73   -8 LegendNANA
05:00 -5.1 -6.6 89 5 8   99.53   -9 LegendNANA
06:00 -5.0 -6.2 91 3 4   99.37   -7 LegendNANA
07:00 -4.1 -5.1 93 5 7   99.17   -7 LegendNANA
08:00 -3.6 -4.5 94 8 3   99.07   -5 LegendNANA
09:00 -2.9 -3.7 94 9 9   98.89   -6 LegendNANA
10:00 -2.1 -2.8 95 9 9   98.67   -6 LegendNANA
11:00 -1.1 -1.6 96 11 7   98.59   -4 LegendNANA
12:00 -0.5 -1.0 96 27 4   98.50   -2 LegendNANA
13:00 -0.4 -0.9 97 28 6   98.48   -2 LegendNANA
14:00 -0.6 -1.3 95 26 3   98.41   -2 LegendNANA
15:00 -0.9 -1.4 96 26 3   98.39   -2 LegendNANA
16:00 -1.8 -2.6 95 26 6   98.50   -4 LegendNANA
17:00 -3.5 -4.7 91 25 8   98.56   -7 LegendNANA
18:00 -4.2 -5.6 90 25 11   98.59   -9 LegendNANA
19:00 -4.8 -6.0 91 25 9   98.65   -9 LegendNANA
20:00 -4.8 -6.5 88 24 7   98.67   -8 LegendNANA
21:00 -5.0 -7.0 86 25 7   98.67   -8 LegendNANA
22:00 -5.5 -7.5 86 25 8   98.65   -9 LegendNANA
23:00 -6.1 -8.0 87 24 5   98.66   -9 LegendNANA

Notes on Data Quality.

Legend

  • E = Estimated
  • M = Missing
  • NA = Not Available
Date modified: